Tracking 19415 objects as of 15-Dec-2018
HD Live streaming from Space Station
objects crossing your sky now

DIAPASON (D1-A)

Track DIAPASON (D1-A) now!
10-day predictions
DIAPASON (D1-A) is classified as:


NORAD ID: 2016
Int'l Code: 1966-013A
Perigee: 504.9 km
Apogee: 2,357.5 km
Inclination: 34.1 °
Period: 114.3 minutes
Semi major axis: 7802 km
RCS: 1.2804 m2 (large)
Launch date: February 17, 1966
Source: France (FR)
Launch site: HAMMA GUIRA SPACE TRACK RANGE (HGSTR)
aabbcc
Your satellite tracking list
Your tracking list is empty




NASA's NSSDC Master Catalog

Two Line Element Set (TLE):
1  2016U 66013A   18348.48362248  .00000173  00000-0  56826-4 0  9998
2  2016  34.0924 358.5216 1187272  24.4467 340.8063 12.59727223393636
Source of the keplerian elements: AFSPC